Wind_Speed
40 39 39 38 38 38 38 39 39 38 37 36 36 37 37 37 37 37 37 36 35 35 35 35 35 34 34 34 34 33 33 34 33 33 33 33 33 33 32 30 30 31 30 30 29 28 29 29 29 29 29 29 30 29 27 25 24 25 25 26 25 25 25 24 18 15 18 20 20 20 21 22 24 26 29 30 28 26 26 25 24 23 22 22 22
41 41 39 39 40 40 39 39 39 38 37 36 36 36 36 37 37 36 36 37 36 36 35 35 35 35 35 35 35 35 35 35 35 35 35 35 35 34 33 32 32 32 32 32 32 31 30 31 31 30 29 30 32 32 32 29 25 25 26 27 28 27 27 27 23 18 18 20 20 20 19 21 24 26 28 30 29 27 27 27 26 25 24 23 23
43 42 41 41 42 41 40 39 39 38 37 36 36 36 36 37 36 35 36 37 37 37 37 37 36 35 36 36 36 36 36 36 36 36 36 36 36 36 35 34 34 34 34 34 34 33 32 32 33 32 31 30 32 33 34 33 30 28 27 28 29 29 28 29 26 22 20 22 22 21 21 22 23 25 27 29 29 29 29 28 27 26 25 25 25
41 41 40 40 40 39 39 39 39 39 38 37 37 37 37 36 36 36 36 36 36 38 38 38 37 37 37 37 38 38 38 38 37 37 38 37 37 37 36 36 36 36 37 37 36 35 35 35 35 34 33 33 32 33 34 35 35 32 30 29 30 31 30 30 29 26 23 22 23 24 23 23 23 24 26 28 29 30 30 28 27 27 26 25 25
38 39 39 39 38 38 39 39 39 39 39 38 38 38 38 37 37 37 37 36 36 37 38 38 38 39 39 39 40 40 40 39 39 39 39 39 39 39 38 38 38 38 39 39 38 37 37 38 38 36 35 35 35 34 35 35 36 36 34 32 31 32 31 30 31 30 26 24 24 24 24 24 23 24 26 28 30 31 30 29 28 28 27 27 26
38 38 38 38 38 38 39 40 39 39 39 39 39 39 38 38 38 38 38 38 37 37 37 38 39 40 41 42 41 41 41 40 40 40 40 40 40 40 39 39 39 39 39 39 39 39 39 40 39 37 36 37 37 37 36 36 36 36 36 35 33 32 31 31 30 30 29 29 27 25 25 26 26 26 27 29 30 31 31 31 30 30 29 29 29
38 38 38 38 38 38 39 40 40 40 40 40 39 39 39 39 39 39 40 40 39 38 38 39 40 41 42 42 42 42 41 41 41 41 41 41 41 40 40 40 40 40 40 40 40 39 40 40 40 39 38 39 40 39 38 38 38 37 38 38 35 33 32 31 30 29 29 29 28 28 27 27 28 29 28 29 31 32 32 31 31 33 33 32 31
38 38 38 38 38 39 40 40 41 41 40 40 40 40 40 40 40 40 40 40 41 41 41 40 41 41 42 42 42 42 41 41 41 42 42 42 41 41 41 40 40 40 40 40 40 40 40 40 40 40 40 41 41 41 40 40 39 38 39 39 37 35 33 31 30 30 30 28 28 28 28 27 28 29 27 27 29 33 35 34 32 34 34 34 33
38 38 38 38 39 40 41 40 40 40 40 40 40 41 41 40 40 40 40 41 41 42 42 41 41 42 42 42 42 41 41 42 43 43 43 42 42 42 41 40 40 40 40 40 40 40 40 40 41 41 42 42 43 42 42 42 40 40 40 39 38 37 35 32 30 30 30 28 27 27 26 26 28 28 27 29 33 35 36 34 33 34 33 32 34
37 37 37 39 41 41 40 39 39 39 39 40 40 41 41 40 40 40 41 41 42 42 42 41 41 42 42 42 42 41 41 43 44 45 45 44 43 42 41 40 40 39 39 39 39 39 40 40 41 42 42 43 43 43 44 44 44 43 42 40 40 39 37 33 32 32 31 29 29 28 25 26 30 31 32 35 36 35 32 32 34 34 29 26 29
36 36 37 38 39 39 39 38 38 38 39 39 40 41 41 41 40 41 41 41 42 42 42 41 42 43 42 42 42 42 43 44 45 46 47 46 45 42 41 40 39 38 38 38 38 39 39 40 40 40 40 42 43 45 45 46 46 46 45 44 42 42 40 37 35 35 33 31 31 30 28 29 34 35 35 36 35 34 34 33 33 31 26 22 23
35 36 37 38 38 37 38 38 37 38 38 39 39 40 40 40 40 40 41 41 41 41 42 42 43 43 42 42 43 43 45 45 46 47 47 48 47 44 41 39 38 38 38 38 39 38 38 38 39 39 40 41 43 44 45 47 48 48 48 47 46 45 44 42 40 38 36 34 33 32 33 34 36 37 37 37 35 35 35 35 34 33 30 27 25
35 36 37 37 38 38 38 38 38 38 38 39 39 39 39 39 40 40 40 41 40 40 41 43 43 43 42 42 43 44 45 46 47 47 48 48 48 47 44 40 39 39 39 39 39 38 37 37 36 38 39 40 41 42 44 46 47 48 49 49 48 48 48 48 47 44 42 39 37 37 38 38 37 40 42 40 37 35 34 35 36 34 32 32 35
34 35 36 37 37 38 39 38 38 38 39 39 39 38 39 40 40 40 39 39 40 41 41 42 43 43 43 43 43 43 45 46 46 47 48 48 48 47 46 43 40 39 39 39 39 39 38 37 36 37 38 39 40 41 42 44 44 46 47 48 50 50 51 52 51 49 47 43 41 42 43 42 42 46 45 41 38 38 37 38 38 37 37 40 44
33 34 35 36 37 38 38 38 38 38 39 39 39 39 40 40 40 39 38 38 40 41 41 41 42 43 44 44 43 43 44 45 45 46 48 48 47 46 46 44 41 40 39 39 39 39 39 38 38 39 39 39 40 40 41 42 42 43 44 46 49 51 52 54 53 52 51 49 47 48 48 46 46 48 45 40 40 43 42 42 42 40 40 41 40
32 32 34 36 37 37 38 37 37 38 38 38 39 39 39 40 40 40 39 39 39 39 39 40 41 41 42 42 42 43 44 43 43 44 45 45 45 44 44 45 43 41 39 38 39 40 39 39 40 40 41 41 41 40 40 40 41 41 42 43 46 49 53 55 53 52 53 53 53 53 53 50 48 47 46 42 41 42 41 40 38 34 32 31 30
32 32 33 36 37 38 38 38 37 38 38 38 38 38 39 40 40 40 39 39 38 39 40 40 40 40 40 40 41 42 42 40 39 40 40 40 41 42 43 44 43 42 41 39 39 40 40 41 41 41 43 43 42 41 41 40 41 41 41 41 41 45 51 51 47 49 53 55 56 56 55 53 50 48 47 45 44 42 39 36 34 31 29 25 22
31 32 33 35 37 39 40 40 39 38 38 39 39 39 39 40 40 40 40 39 39 40 40 40 39 39 39 40 41 41 40 37 35 35 35 35 38 41 43 43 42 42 41 40 40 40 40 41 42 43 44 44 43 42 41 41 42 42 40 39 39 44 48 42 38 43 47 50 54 56 55 55 53 51 50 49 48 45 42 41 37 34 31 26 23
31 32 33 34 37 39 41 41 41 40 40 40 40 40 40 40 40 40 40 40 40 40 39 38 38 39 39 39 39 39 37 35 33 32 31 31 34 38 41 42 41 40 40 39 40 40 40 41 42 44 46 46 44 44 43 43 43 43 41 39 40 45 44 35 34 40 41 42 47 51 53 55 55 54 54 52 50 48 49 49 43 37 33 31 29
28 33 34 34 36 39 40 41 42 42 42 41 40 40 40 39 39 38 38 38 38 37 37 37 37 38 38 38 37 37 36 34 32 31 30 30 32 34 38 40 40 39 39 39 38 38 39 41 42 44 46 46 45 45 45 44 45 45 43 41 42 46 42 34 35 39 40 42 45 46 48 52 53 53 54 53 52 51 51 52 47 42 38 35 32
19 28 32 34 36 37 38 40 41 42 42 42 40 40 39 37 37 37 37 36 36 35 35 35 35 35 35 35 36 36 34 32 31 31 31 31 31 32 36 40 40 40 39 38 38 37 37 39 41 44 45 46 46 46 46 46 46 47 47 46 47 49 45 39 37 37 40 44 44 42 42 44 45 47 50 51 53 53 53 53 52 49 45 41 36
11 21 28 31 33 35 36 38 38 39 39 40 38 37 37 36 36 36 35 34 34 34 34 33 33 32 32 32 33 33 32 31 31 31 31 32 32 33 35 38 39 39 38 36 35 35 36 38 41 42 43 44 46 45 45 45 46 47 49 50 51 52 49 45 41 38 37 38 37 37 39 40 40 43 47 50 52 52 52 54 55 53 51 48 44
8 16 25 28 29 32 34 34 36 36 36 37 37 35 35 35 34 34 33 32 31 31 31 31 30 29 28 28 28 28 28 28 29 30 31 31 32 33 35 36 37 39 39 37 35 35 37 39 41 41 41 42 44 44 44 44 45 47 49 50 51 52 52 50 43 34 29 30 31 34 37 38 38 41 45 48 49 50 51 52 51 49 48 48 47
7 12 21 26 27 28 30 32 33 34 34 35 35 33 33 33 32 32 32 31 29 28 28 28 27 25 25 24 24 23 23 23 25 28 29 30 31 32 33 34 35 37 39 38 35 34 35 35 36 36 37 38 40 40 42 42 43 45 46 47 49 51 52 48 36 23 22 30 33 35 39 40 39 40 43 46 46 47 47 43 39 40 42 44 46
6 10 17 22 24 25 27 29 30 31 32 33 33 31 30 30 29 28 29 29 28 26 24 25 24 23 22 22 22 22 21 21 22 24 27 29 30 30 31 33 34 36 39 38 34 31 30 30 31 31 32 33 34 35 37 39 40 42 43 45 46 47 48 44 29 18 24 36 39 38 40 39 37 39 45 46 42 37 34 31 32 38 42 43 46
7 8 14 18 20 22 23 25 27 28 29 30 31 30 30 29 28 27 27 27 25 24 23 23 22 22 21 21 21 22 23 23 23 24 25 27 29 31 33 34 34 36 38 39 36 33 31 31 29 28 27 27 27 28 31 32 34 36 38 40 42 43 46 44 30 21 28 40 44 40 36 34 36 43 46 41 34 30 32 34 37 41 43 44 45
8 7 14 16 18 21 23 24 25 25 26 27 27 27 29 29 27 26 25 24 23 22 21 21 21 20 20 20 21 23 23 22 21 21 20 21 23 26 28 30 32 34 36 38 38 38 37 35 33 31 30 29 29 29 30 30 31 32 33 34 36 38 41 42 33 22 26 36 41 39 36 37 42 48 45 36 30 32 36 39 40 40 41 42 39
7 4 13 17 19 22 24 25 25 24 23 22 21 21 23 25 25 25 26 25 23 22 21 21 22 22 21 22 22 20 19 19 18 17 15 14 13 14 16 17 20 22 24 26 26 27 28 28 28 28 29 30 30 30 29 29 28 29 29 29 31 32 34 35 33 28 26 31 36 36 35 36 41 45 44 37 34 38 40 38 39 42 41 38 34
4 1 8 14 19 22 23 24 25 23 21 18 15 13 13 16 18 20 22 24 24 24 23 23 24 25 23 21 20 18 17 17 16 14 12 10 9 9 9 9 8 8 8 9 9 10 11 13 14 15 15 16 18 19 19 20 21 22 23 24 25 28 30 30 31 31 29 29 32 34 33 34 37 41 41 38 38 43 44 40 39 40 39 36 35
3 4 5 9 13 17 20 22 23 23 22 21 18 14 9 8 10 12 14 17 20 22 22 22 22 22 21 18 17 18 18 17 14 12 10 9 8 7 7 7 6 6 6 6 6 7 7 7 8 9 10 11 12 14 16 17 19 21 23 24 25 26 28 28 30 32 31 30 31 32 33 34 34 36 37 37 39 43 44 44 43 41 38 37 35
5 6 6 7 10 13 17 19 20 21 23 23 21 20 18 16 12 9 7 8 11 14 16 17 16 16 16 15 15 15 15 15 14 11 9 8 6 6 6 6 6 6 6 5 4 2 2 4 5 8 9 11 12 14 16 18 20 22 23 25 26 27 28 29 30 32 32 32 32 33 33 34 34 35 35 37 39 40 41 43 43 41 40 39 37
8 8 7 7 9 12 15 17 19 22 22 22 23 24 25 25 23 20 17 13 11 11 11 12 14 13 12 13 17 19 18 15 13 10 9 8 7 7 7 7 7 6 5 5 6 7 7 7 8 9 10 11 13 14 16 18 20 21 23 25 27 29 31 32 34 34 34 34 34 34 34 35 36 36 36 37 38 38 38 39 39 39 40 40 40
10 9 9 9 10 11 14 18 20 22 24 23 23 24 26 26 25 25 24 23 22 21 19 17 17 17 16 15 16 18 17 16 14 12 12 11 11 11 11 12 12 12 11 11 12 11 10 8 8 8 10 11 13 15 17 19 20 22 23 25 27 30 32 34 35 35 35 35 35 35 36 36 36 36 37 37 37 37 36 36 37 38 38 37 38
12 11 11 12 12 13 15 18 21 22 24 25 25 24 25 26 27 26 25 25 25 25 24 23 21 21 22 21 20 19 19 17 16 16 15 15 15 14 14 14 15 14 13 14 13 11 8 7 7 8 9 11 13 14 16 18 20 22 24 25 27 29 31 33 33 34 35 36 35 36 37 37 36 35 35 36 36 35 35 36 36 37 37 36 36
12 13 14 15 16 16 18 20 22 23 23 25 27 28 27 27 27 24 23 24 23 21 22 23 22 21 21 21 21 20 19 18 17 17 16 16 15 14 14 15 15 14 14 14 13 11 10 9 9 9 10 12 13 14 16 18 20 22 24 26 27 29 31 32 32 33 35 36 37 38 39 38 38 38 37 36 34 33 32 33 34 36 37 37 36
13 14 16 17 18 19 19 21 23 24 24 25 27 28 26 25 25 24 25 26 24 20 20 21 21 20 20 20 19 18 18 18 17 17 16 15 13 12 12 13 13 13 13 12 11 11 11 11 11 12 13 13 15 16 18 20 22 23 24 26 27 29 30 32 33 35 36 37 38 40 40 39 39 38 37 36 35 33 33 33 33 35 37 37 35
12 13 15 17 19 21 21 22 24 24 24 24 24 24 23 22 24 26 26 26 25 22 20 20 21 21 20 19 18 18 18 18 17 17 16 14 12 11 12 12 12 11 11 10 10 11 12 12 13 14 15 15 16 18 19 20 22 23 24 26 27 28 30 32 34 35 36 36 38 39 39 39 39 38 37 35 33 31 31 31 31 34 38 40 38
17 17 18 19 21 23 24 24 23 23 22 21 21 23 22 21 22 24 24 24 23 21 19 19 21 20 18 15 14 15 17 17 17 16 15 14 13 13 13 12 11 11 10 9 10 10 11 13 13 14 14 15 16 17 18 19 20 21 22 24 25 27 29 31 32 32 33 34 36 37 37 37 36 35 35 35 33 31 30 30 29 29 31 34 35
24 24 25 26 26 26 27 27 26 25 25 23 22 21 21 18 18 19 20 21 21 20 21 23 23 22 18 15 14 15 17 17 16 16 15 14 13 14 15 15 14 14 13 12 12 12 13 14 14 13 13 15 16 16 16 17 19 20 21 22 23 25 27 28 28 29 31 31 32 33 33 33 33 33 34 33 32 32 31 29 29 28 26 26 29
26 27 28 29 29 29 29 30 29 28 28 28 26 25 24 22 21 22 23 23 23 24 25 26 26 24 22 20 19 19 20 18 17 16 15 14 13 14 15 17 17 17 15 14 13 12 12 12 13 13 13 14 15 15 15 16 17 18 19 19 21 22 23 24 25 27 28 29 28 28 29 29 27 26 27 29 29 30 30 29 29 29 29 29 27
28 28 29 29 30 31 31 30 29 28 28 28 28 28 26 25 25 26 25 24 24 24 25 25 25 24 22 21 20 20 20 19 18 16 16 15 14 14 15 17 17 17 15 13 11 10 9 9 11 13 13 13 12 12 13 14 15 15 16 17 18 19 21 23 25 26 27 27 25 24 25 25 24 21 18 18 20 23 26 26 23 18 15 14 11
29 29 28 28 29 30 29 27 27 28 29 29 28 27 26 25 26 26 25 24 23 23 23 23 23 22 21 19 17 17 18 18 16 16 16 16 15 15 15 15 15 15 13 11 10 9 8 8 10 12 12 11 11 11 11 12 13 14 15 16 17 19 22 23 24 24 24 24 24 23 25 26 27 27 26 24 21 17 10 4 3 10 15 17 18
29 29 28 28 29 28 27 26 27 28 28 28 27 26 26 26 25 25 24 24 23 22 22 21 21 20 20 18 16 16 17 17 16 15 15 16 16 16 15 14 14 13 12 11 11 10 9 9 10 11 10 10 10 9 9 12 13 13 14 16 17 19 21 22 22 22 23 23 23 22 25 28 30 31 31 31 31 30 27 25 25 26 28 31 33
30 29 29 29 28 28 26 26 27 27 26 27 27 26 26 26 25 24 23 21 20 20 20 20 20 20 20 19 18 18 18 18 17 16 16 16 16 16 16 15 14 14 13 13 13 12 11 10 10 9 8 8 8 7 8 11 12 12 13 15 16 18 19 20 21 21 20 20 20 19 19 21 24 27 30 32 34 35 35 34 34 34 34 34 35
30 29 28 28 27 27 26 26 26 26 26 26 27 26 25 25 25 23 21 19 18 18 19 18 19 19 19 19 19 20 19 18 17 16 16 16 16 16 16 16 15 14 14 14 13 12 12 10 8 6 5 6 6 5 6 8 9 10 11 13 14 16 17 17 17 17 17 18 18 18 19 19 20 21 23 26 29 32 34 35 36 36 36 35 35
29 29 28 27 26 26 25 25 25 25 25 25 25 24 24 24 24 23 22 20 19 19 18 17 17 17 17 17 18 18 18 18 18 17 16 16 16 17 17 17 16 16 15 13 12 12 12 11 8 6 5 5 6 5 5 7 7 8 9 10 11 12 13 13 14 15 16 18 19 21 23 23 23 23 24 25 26 27 28 30 32 33 32 32 33
30 29 28 27 26 25 24 24 24 25 24 24 23 22 22 22 22 23 23 22 20 19 19 18 17 17 18 19 20 20 20 20 20 19 18 17 17 17 17 17 17 17 16 15 15 14 14 13 11 9 7 6 6 5 5 5 6 6 7 8 8 8 9 9 10 10 12 15 18 20 22 22 23 23 24 25 26 27 26 26 27 29 30 30 30
30 29 28 28 27 26 25 24 25 25 24 25 25 25 25 24 24 25 26 26 24 22 21 19 18 18 20 21 23 24 25 24 23 23 22 21 20 19 19 18 18 18 18 18 18 18 17 15 14 12 11 9 7 6 5 5 5 6 7 7 7 6 6 7 6 6 6 8 10 13 16 17 18 19 20 22 24 25 25 25 24 25 26 26 26
30 29 28 28 28 27 26 25 25 25 25 25 27 28 28 28 28 27 27 27 26 24 22 21 20 19 19 20 23 26 27 27 26 25 24 23 23 23 22 21 21 20 20 20 21 21 20 18 16 15 14 12 11 9 8 6 5 6 7 8 9 9 8 8 7 7 7 4 3 6 8 10 12 12 13 16 18 19 21 22 24 24 23 23 23
30 30 29 29 29 28 28 28 27 26 26 26 26 26 26 26 26 26 25 25 24 23 23 22 21 20 19 19 20 23 25 26 25 25 24 23 24 24 24 23 23 22 22 22 23 23 24 23 22 20 18 16 13 12 11 9 7 6 7 9 11 12 12 10 10 10 10 7 3 1 1 3 6 7 7 9 10 12 14 16 18 20 22 23 24
30 30 29 29 29 29 29 29 28 27 27 27 27 27 27 26 26 26 26 25 25 24 23 23 23 22 21 21 20 20 21 22 22 23 22 22 23 24 24 24 23 23 24 23 23 24 26 27 26 26 24 21 17 13 12 11 10 8 8 9 11 13 13 14 14 13 13 11 9 8 7 5 2 1 2 3 4 5 7 9 11 13 15 17 18
Wind_Direction
200 201 202 203 205 206 208 209 210 211 212 212 211 212 213 213 214 214 213 214 215 216 217 218 219 220 220 221 223 224 225 225 225 224 224 227 228 227 227 226 226 227 227 227 227 227 227 227 228 228 226 227 228 230 232 235 238 239 237 234 229 227 223 216 218 233 236 233 236 239 237 236 236 234 232 232 232 232 234 237 240 244 244 240 240
200 202 202 203 205 206 208 208 210 211 212 213 214 214 214 214 215 214 214 214 214 214 216 217 219 219 219 221 223 225 226 225 224 223 223 225 226 226 226 225 225 226 226 227 227 227 228 229 229 229 228 229 230 230 232 234 236 239 238 234 230 227 225 222 222 228 235 234 235 238 237 236 238 236 232 231 232 232 233 236 239 243 245 245 244
200 202 202 204 206 207 207 208 209 211 212 213 216 216 217 217 215 214 215 215 214 214 216 216 217 218 219 221 223 225 226 226 224 224 223 224 224 224 225 225 225 225 225 226 227 226 226 228 230 228 227 230 232 231 233 234 235 239 240 235 232 230 228 226 225 227 232 235 236 237 236 236 238 237 233 232 233 234 235 239 241 242 245 247 247
200 201 203 205 206 206 207 208 208 210 211 213 215 217 218 218 217 216 216 215 215 215 216 217 217 218 220 221 223 225 226 226 225 224 224 225 225 225 225 225 226 226 226 226 226 225 225 227 229 229 227 229 232 233 233 234 236 238 241 238 234 232 229 227 229 232 235 236 236 235 235 237 238 235 232 231 233 235 238 241 243 243 245 247 249
199 201 203 205 206 206 207 208 208 209 211 212 215 217 218 218 218 218 217 216 216 216 216 217 217 218 220 222 224 225 225 225 225 225 225 226 226 226 226 226 227 227 228 227 227 226 226 228 230 229 226 227 230 233 234 234 236 238 240 240 237 235 233 230 232 234 236 239 240 237 233 234 235 232 229 230 231 234 237 240 242 244 246 248 249
199 200 202 204 205 207 207 208 208 209 211 212 214 216 217 218 218 219 219 218 218 218 217 217 217 218 221 223 224 225 225 225 225 225 226 226 226 227 227 228 228 229 229 229 228 228 227 229 230 229 226 227 229 231 233 234 236 236 238 240 240 238 236 234 235 234 235 239 242 241 234 229 229 228 228 231 233 234 235 238 240 242 244 246 248
198 200 201 203 206 207 208 208 209 210 211 213 214 216 217 218 218 219 220 219 219 219 218 218 218 219 221 222 223 225 225 224 225 226 226 226 226 226 227 228 229 230 231 231 230 230 229 230 231 230 228 228 230 231 232 232 234 235 236 238 240 240 238 237 236 236 236 237 239 241 238 232 229 229 231 233 235 236 236 235 237 239 240 243 246
198 199 200 202 205 208 209 210 210 210 212 213 215 216 217 218 218 219 219 219 219 219 219 220 220 220 222 223 224 225 224 224 225 225 226 226 227 227 227 228 228 230 231 232 232 231 231 232 232 232 231 231 232 232 233 232 232 233 235 236 237 238 238 236 235 235 237 237 238 240 240 237 233 232 232 230 229 231 233 232 234 238 240 241 244
198 199 200 202 205 209 210 210 211 211 212 213 215 216 217 218 218 219 219 219 220 220 221 221 221 221 222 223 225 225 225 225 225 225 225 226 226 228 228 228 229 229 230 232 233 233 233 233 233 234 234 235 235 235 235 236 234 233 233 233 233 234 236 234 232 232 233 235 238 238 238 238 236 231 227 225 224 228 230 229 233 239 242 243 245
197 198 199 203 206 208 209 210 211 211 211 213 215 216 217 218 219 219 220 220 220 221 221 221 222 223 223 223 224 225 225 226 227 227 227 226 226 227 229 229 230 230 230 231 233 234 234 234 235 236 236 237 238 238 238 238 238 238 238 235 232 231 231 230 229 229 230 231 234 233 232 236 236 232 229 229 229 230 229 227 230 235 239 242 246
198 199 201 204 207 207 208 209 211 211 212 213 215 216 217 217 218 219 219 220 220 220 221 221 222 223 224 224 224 224 226 227 228 229 229 229 228 227 228 230 231 231 232 232 233 234 235 236 237 237 237 238 239 239 240 240 240 241 242 240 238 235 232 229 228 228 227 229 232 231 228 233 237 234 233 234 232 229 228 228 229 231 230 231 241
199 201 203 205 206 207 207 208 210 212 213 214 215 216 217 217 218 219 219 220 220 220 221 221 222 223 224 225 225 226 227 228 229 230 230 230 229 228 229 230 231 232 233 233 235 235 236 237 238 238 238 239 239 239 240 241 242 242 243 243 242 241 239 236 233 230 227 228 231 230 228 231 236 235 233 233 232 230 229 229 229 229 227 227 233
199 202 204 205 206 207 207 208 209 211 212 214 215 216 216 217 218 218 219 220 221 221 222 222 223 223 223 225 226 227 229 230 230 230 231 232 231 229 229 230 231 233 234 235 236 237 237 238 238 239 240 240 241 240 240 241 242 242 243 243 242 243 243 243 240 237 234 231 230 232 232 232 234 236 236 233 230 228 228 228 229 228 227 230 235
200 201 203 205 205 206 207 207 209 210 212 213 214 214 215 217 218 219 219 220 221 222 223 223 224 224 224 226 227 229 230 231 231 231 232 233 232 230 230 231 232 234 235 236 237 238 239 238 238 240 241 241 241 241 241 241 242 242 241 241 241 242 243 244 243 241 239 236 235 238 239 236 236 240 241 235 230 228 227 228 229 228 228 234 240
202 202 203 205 205 206 206 207 208 210 211 212 212 213 214 215 217 218 218 220 221 223 224 224 225 226 226 227 229 231 232 233 233 233 233 234 234 232 230 231 233 235 237 237 238 239 240 240 240 242 243 243 242 241 241 241 241 242 241 240 241 241 242 243 242 240 240 239 239 242 244 243 242 245 244 239 235 235 234 234 234 232 233 238 242
205 204 203 204 205 205 206 206 207 208 209 210 211 212 212 214 215 216 217 219 222 224 225 226 227 228 228 229 230 233 235 235 234 235 235 235 234 233 231 231 233 235 237 238 239 240 241 241 242 243 244 245 244 243 243 242 241 241 241 241 242 243 244 244 243 242 242 242 243 244 246 246 246 247 247 243 241 240 238 239 237 233 233 238 241
208 206 204 204 205 205 205 205 206 207 208 209 210 211 212 214 215 215 215 217 220 222 225 227 228 229 230 230 230 233 236 237 236 237 237 235 234 233 232 232 233 235 237 238 239 241 241 242 243 244 246 247 246 246 245 243 241 241 241 242 243 244 246 246 244 244 245 246 247 247 248 248 248 248 248 246 245 242 236 235 234 228 227 232 237
210 209 207 205 205 205 205 205 205 206 207 209 210 211 212 214 215 215 215 216 219 221 223 226 228 230 231 231 232 234 236 237 237 237 237 235 234 233 232 232 234 236 238 239 240 241 242 243 244 245 246 247 247 247 246 243 241 241 241 242 244 246 247 246 245 247 248 248 249 249 249 250 249 248 249 248 247 243 235 233 232 226 224 228 232
213 212 210 208 206 206 205 205 205 206 207 209 210 211 212 213 214 215 215 216 219 221 222 224 227 229 231 232 233 234 236 236 236 236 235 234 234 234 232 231 233 235 238 239 241 242 243 244 245 246 247 249 248 248 247 244 242 242 242 242 244 247 249 247 245 247 248 248 249 248 249 249 248 248 248 247 246 243 238 237 235 227 225 228 228
220 217 214 210 208 207 206 205 204 205 207 209 211 212 213 213 213 214 216 217 220 222 222 224 227 229 231 233 234 235 235 235 234 234 234 234 234 233 231 230 231 234 236 238 239 241 242 244 245 247 248 250 250 249 248 246 244 244 243 241 243 249 252 251 247 247 247 248 249 248 248 249 248 247 247 246 245 243 240 239 236 230 227 228 226
231 222 217 213 209 208 207 205 205 206 207 209 210 212 213 212 212 213 215 216 218 221 222 224 226 229 231 232 234 236 235 234 234 234 234 234 234 232 230 230 231 234 235 237 238 239 241 243 245 247 249 251 252 251 250 249 247 246 244 243 247 252 253 251 250 248 247 248 249 249 249 249 247 247 247 246 244 242 240 238 236 232 229 228 225
248 226 219 215 211 208 207 206 206 206 206 207 208 210 212 213 212 212 213 215 217 219 221 224 226 229 231 232 234 236 236 235 235 235 235 235 235 234 233 234 236 235 235 236 237 239 241 244 247 248 249 251 253 253 253 252 250 248 248 249 251 254 254 252 250 248 247 248 250 250 250 249 246 245 245 244 244 242 240 238 236 232 230 230 228
271 231 220 216 213 209 207 205 205 205 205 206 206 208 209 211 211 212 212 213 215 217 220 222 225 228 230 232 234 235 235 235 236 236 237 237 236 236 237 239 241 238 237 238 239 241 244 247 249 252 252 253 254 255 256 256 254 253 254 255 256 256 255 252 251 250 252 255 256 254 252 250 247 246 245 245 245 243 242 240 237 235 232 232 233
294 239 221 215 212 210 207 204 203 203 204 204 204 206 207 208 209 210 210 211 212 215 218 220 222 226 229 230 232 232 232 234 235 237 238 238 237 239 240 243 244 243 242 242 243 244 246 249 252 255 256 256 258 258 259 259 258 259 260 261 261 260 257 254 253 255 258 257 254 253 253 252 250 250 251 250 250 248 246 242 240 238 236 233 234
304 242 222 215 211 207 204 202 201 202 202 201 202 203 203 204 206 207 208 209 210 213 215 217 219 222 225 228 230 230 232 234 236 239 240 240 240 241 242 244 245 244 244 244 244 244 247 250 253 255 257 259 260 260 261 261 262 263 264 264 264 263 261 260 257 245 248 254 253 250 252 256 257 258 259 258 256 254 250 245 239 238 237 234 234
311 236 216 212 207 201 197 196 197 199 199 199 200 201 200 201 202 204 205 207 209 211 212 214 217 221 224 226 228 231 234 237 238 239 239 239 239 240 241 243 244 243 243 244 244 245 247 249 252 254 258 262 264 265 267 268 268 268 268 267 267 266 266 266 258 228 230 248 253 252 255 262 265 264 264 263 260 253 249 244 238 234 232 230 231
324 236 209 203 198 195 193 190 190 192 194 196 198 199 200 200 200 201 202 204 206 209 210 212 215 217 220 224 228 232 235 234 232 232 232 234 237 239 241 244 246 247 248 250 251 252 253 254 256 258 262 266 268 270 272 273 274 275 274 274 274 273 273 274 269 245 233 246 254 256 257 258 259 261 263 265 263 258 250 242 236 234 231 228 228
334 231 204 197 191 191 190 187 184 184 185 187 190 194 199 201 201 204 207 207 208 210 211 213 216 218 221 224 225 226 226 224 222 221 222 224 226 229 232 237 241 245 249 253 256 258 259 261 262 263 265 269 271 274 277 280 282 284 285 286 287 288 288 287 284 274 262 259 261 262 259 255 254 257 260 259 257 257 253 242 235 235 232 226 223
356 113 181 187 187 187 184 181 179 175 168 165 165 171 189 200 204 207 211 212 214 216 216 217 220 222 223 221 218 213 208 207 206 203 200 197 195 196 201 204 208 215 224 232 240 247 254 260 265 272 279 284 288 293 297 299 300 301 302 303 303 301 300 298 293 288 282 274 268 266 264 259 256 256 257 255 252 252 251 245 238 236 232 225 222
42 68 117 153 171 177 176 175 173 167 161 156 147 132 132 167 194 205 214 218 220 221 222 223 223 221 216 210 208 209 203 190 179 175 173 172 170 169 174 179 183 185 193 203 217 235 254 271 291 309 322 328 328 328 329 327 324 322 319 316 313 309 305 300 296 293 289 283 277 273 269 265 261 257 255 253 251 249 247 243 238 234 229 223 222
77 65 84 116 140 156 166 170 167 160 156 154 145 128 110 102 107 123 155 196 209 210 212 213 209 205 202 188 173 170 168 158 151 153 157 159 162 164 168 176 184 191 202 209 213 238 302 331 350 354 353 352 348 343 338 334 328 323 320 317 314 311 307 302 300 298 294 289 284 279 274 269 265 261 256 253 251 249 244 240 236 232 227 224 223
86 80 87 108 126 140 153 160 159 153 148 144 141 132 117 101 92 92 99 113 128 136 144 151 151 153 161 156 143 134 130 131 134 138 140 142 143 140 137 132 129 132 141 135 106 81 64 50 37 22 5 354 347 340 334 328 323 319 315 312 311 311 308 305 304 301 296 291 287 282 278 273 268 265 261 257 255 250 244 239 234 229 227 226 224
85 88 95 110 122 130 139 146 148 147 144 139 134 130 124 115 105 97 95 98 101 101 99 103 111 116 118 123 127 126 124 126 128 129 129 127 122 117 112 106 99 96 98 98 90 80 70 55 37 18 1 348 341 336 331 326 321 317 313 308 307 307 306 305 304 301 296 293 289 285 281 278 273 269 265 261 257 252 246 240 235 231 229 227 225
81 84 91 104 113 119 127 135 139 140 139 137 131 126 121 116 112 107 100 95 93 94 96 98 101 105 108 111 115 117 117 117 116 116 114 110 104 99 96 91 86 80 77 78 77 73 64 48 28 13 359 347 337 330 325 322 320 316 313 311 309 307 307 306 305 302 299 296 293 288 285 281 276 272 268 263 260 255 249 241 236 233 232 230 227
84 84 88 95 101 107 117 127 131 131 131 129 125 120 115 112 111 109 103 98 94 94 99 104 106 108 110 111 112 111 108 104 102 101 98 94 90 85 81 77 73 69 65 63 60 56 49 38 25 11 357 344 337 331 327 325 324 322 319 317 314 312 311 310 307 304 302 299 294 290 286 282 277 272 268 264 261 259 254 247 240 236 235 234 230
89 88 91 94 94 96 104 115 121 123 123 124 124 123 122 123 123 120 114 109 107 105 104 107 110 112 114 116 112 107 102 99 95 92 89 85 80 73 68 67 67 65 60 53 45 39 36 29 17 5 355 347 344 340 335 331 329 327 324 322 318 316 315 313 311 309 306 302 297 293 288 283 278 273 269 265 260 258 257 254 249 245 242 241 238
84 85 90 97 100 98 99 107 117 121 122 125 128 129 131 133 132 129 125 121 120 117 113 112 111 110 112 114 111 105 100 98 94 91 88 86 80 71 66 68 69 64 54 43 32 25 22 18 8 359 354 351 347 343 338 335 332 329 327 325 323 320 319 319 317 315 312 307 303 299 293 287 281 275 271 268 263 259 258 257 257 254 248 243 239
76 79 86 95 99 97 95 98 107 113 117 122 128 133 134 135 135 133 130 128 126 121 113 105 98 93 95 106 114 112 107 102 95 89 84 81 77 69 63 60 57 49 40 32 24 18 14 9 2 355 351 348 345 342 338 335 333 331 329 329 328 327 328 328 326 325 323 320 317 314 307 297 287 278 271 266 263 261 261 260 262 264 258 248 240
78 80 85 88 88 87 87 88 90 92 94 98 105 112 116 120 123 121 117 113 109 100 89 82 76 73 78 94 111 116 109 99 89 83 78 74 69 60 53 48 42 35 29 24 20 15 11 4 356 347 344 344 344 344 342 340 339 340 339 338 336 334 334 334 333 334 336 334 332 328 321 309 297 287 277 268 261 258 258 257 258 260 261 255 247
81 79 81 82 81 80 81 81 81 81 82 84 87 90 92 95 99 100 99 95 90 84 80 75 70 68 74 85 96 101 97 86 78 76 73 68 60 49 41 37 32 25 20 16 12 9 4 355 343 337 339 345 348 350 350 351 351 351 351 349 345 341 342 345 347 348 348 345 343 343 339 330 320 308 294 283 273 264 259 257 257 256 258 258 254
87 82 80 81 82 81 79 77 77 79 80 80 82 83 84 87 90 92 92 90 86 83 79 74 69 70 75 81 87 91 86 77 71 68 63 59 54 45 36 31 26 19 14 10 5 360 353 342 336 339 346 350 353 357 0 1 360 357 356 355 353 351 354 359 1 360 357 353 354 360 1 358 358 356 343 323 304 286 270 262 257 255 259 259 245
91 87 84 83 83 82 80 77 78 80 81 79 80 80 82 84 85 85 85 83 81 79 77 72 70 72 75 77 81 84 80 73 68 64 58 54 50 44 38 33 27 19 12 8 4 355 346 343 347 351 353 354 355 360 2 0 358 355 351 352 354 355 358 360 359 358 356 354 357 11 22 25 25 25 25 26 26 20 5 353 85 89 86 88 95
96 92 89 87 85 84 83 81 81 81 80 80 80 80 81 82 82 81 80 79 76 74 71 67 65 66 67 67 70 72 69 64 60 57 54 51 46 42 41 41 36 26 18 17 12 0 351 352 355 354 355 355 352 353 354 353 352 350 347 349 356 359 1 1 358 354 352 350 352 7 29 41 46 46 45 46 50 54 58 65 72 76 81 86 89
98 94 91 89 87 85 84 84 83 82 82 82 81 80 80 80 79 77 76 74 71 68 66 63 62 61 58 57 59 60 57 54 52 52 53 50 45 42 45 47 45 37 32 33 31 22 14 14 9 359 356 357 354 348 348 352 353 350 347 351 2 8 8 6 2 357 357 360 360 5 21 36 46 55 62 66 69 69 69 69 70 72 76 80 83
95 92 89 87 85 83 83 83 83 84 83 82 80 78 77 77 76 74 72 70 68 66 64 61 61 60 56 54 56 57 55 53 52 53 54 51 45 45 48 49 45 42 41 40 37 31 28 29 25 12 356 354 352 347 348 354 359 358 356 2 14 20 19 17 15 14 20 27 27 27 32 37 39 44 53 62 69 75 78 80 81 82 84 85 86
92 90 88 85 83 82 82 82 83 82 81 81 80 79 78 77 77 76 76 75 73 70 67 63 61 60 58 56 56 56 55 53 52 52 54 52 47 47 51 50 46 44 43 39 34 32 31 31 30 22 3 349 345 347 354 2 6 7 7 13 24 33 38 38 35 33 39 48 51 53 56 58 59 58 57 59 63 68 74 81 85 88 90 92 94
91 89 88 86 85 83 82 82 82 82 81 81 81 79 78 78 78 79 79 78 76 73 70 67 63 61 60 60 59 57 56 54 52 52 54 54 53 52 53 53 50 46 43 40 38 36 35 32 31 30 23 5 351 354 7 13 9 3 2 7 21 38 48 45 42 47 57 62 66 69 70 70 70 70 70 72 74 76 77 80 85 91 95 97 99
90 89 87 87 86 84 84 83 83 84 85 85 85 83 82 81 79 78 78 77 74 70 68 66 63 62 62 62 62 61 60 58 57 56 55 56 58 60 60 57 55 51 47 45 42 39 37 35 34 34 32 23 12 14 22 18 358 345 343 347 357 9 10 5 8 29 52 61 70 78 82 83 81 77 75 77 80 84 88 92 94 99 103 106 110
90 89 88 87 86 86 86 86 86 87 88 88 87 86 85 84 82 79 78 76 73 69 66 63 61 59 58 57 58 60 60 58 58 57 56 57 61 64 64 61 59 55 51 48 44 42 40 39 38 38 37 32 25 26 29 22 353 332 331 334 337 338 335 331 329 332 338 355 63 91 91 92 93 89 87 88 88 89 94 100 103 106 108 111 115
89 89 88 87 87 88 88 87 87 87 88 87 86 85 84 82 80 78 76 74 71 68 66 63 61 58 57 55 54 56 58 57 56 56 56 58 61 64 64 63 60 57 53 49 45 43 42 41 40 40 40 35 29 27 28 26 16 351 334 327 324 322 319 314 310 312 314 313 308 305 46 105 109 105 103 106 106 106 109 113 117 119 120 121 124
89 90 89 89 89 89 88 87 87 87 86 86 86 85 84 82 80 78 76 75 73 70 68 65 63 61 59 58 55 53 53 53 54 54 54 55 58 61 63 62 60 57 55 52 47 44 43 42 41 40 40 38 34 28 24 22 20 10 352 335 324 318 314 309 304 303 302 299 295 293 292 286 267 200 157 152 149 142 139 139 141 141 140 141 144
Height
761 765 768 771 774 777 780 783 785 788 791 793 795 796 798 800 802 804 806 808 809 811 813 815 817 819 820 822 823 825 826 827 829 830 831 832 833 834 835 836 837 838 839 840 840 841 842 842 843 843 845 845 845 846 846 847 847 846 847 847 847 848 849 849 849 848 848 849 849 850 850 851 850 850 851 851 852 853 853 853 854 854 854 854 854
757 761 764 767 770 773 776 779 783 785 788 791 793 794 796 797 800 802 804 805 807 809 810 812 814 816 818 819 820 821 823 824 826 827 828 829 830 831 833 834 835 835 836 837 837 838 839 839 840 841 842 843 843 843 844 844 844 844 844 844 844 845 846 847 847 846 846 847 848 848 849 849 848 848 849 849 850 851 851 851 852 852 852 851 851
753 756 760 763 765 769 773 776 779 782 784 787 789 792 794 795 798 800 801 803 804 806 808 809 811 813 814 816 817 818 819 821 823 824 825 826 827 828 830 830 831 832 832 833 834 835 836 836 837 838 839 840 840 840 841 842 842 842 841 842 842 843 843 844 845 844 844 845 846 847 847 847 846 846 847 847 848 849 849 849 850 849 849 849 849
750 754 756 759 763 767 770 773 775 778 780 783 786 788 791 793 796 797 798 800 802 803 805 806 808 810 811 813 814 815 816 817 819 820 821 823 824 825 826 827 828 828 828 829 830 832 832 833 833 834 836 837 837 838 838 839 839 839 840 840 840 840 841 842 842 843 843 843 844 844 845 845 845 845 846 846 847 847 847 847 848 847 847 847 847
747 751 753 757 760 764 766 769 771 773 776 779 782 785 788 790 793 794 796 798 799 800 802 803 805 806 807 809 810 811 812 814 815 817 818 819 820 821 822 823 824 824 825 826 827 828 829 829 829 831 833 834 835 835 836 836 837 837 837 838 838 839 839 840 840 841 841 841 841 842 842 842 842 843 844 844 845 845 845 845 845 845 845 845 845
744 747 750 754 757 760 762 764 767 769 772 775 778 781 784 786 789 791 792 794 796 797 799 800 801 802 803 804 806 807 808 810 812 813 814 815 816 818 819 819 820 821 822 823 824 825 825 826 827 828 830 831 831 832 832 833 834 834 834 835 836 837 838 838 839 839 839 838 838 839 839 839 840 840 841 841 842 842 842 842 842 842 842 842 842
739 742 746 749 753 756 758 760 762 765 768 771 774 777 780 782 784 787 789 791 792 794 795 796 797 798 799 801 802 803 805 807 808 809 811 812 813 814 815 816 817 818 819 819 821 822 822 823 824 825 826 827 827 828 829 830 830 831 831 832 834 835 835 836 837 837 837 836 836 836 836 837 837 837 838 839 840 839 839 839 838 838 838 838 838
735 738 741 745 748 751 753 756 758 760 764 767 770 773 775 778 780 783 785 787 788 790 791 792 794 795 796 797 798 800 802 803 804 805 807 808 809 810 811 812 813 814 815 816 817 818 819 820 821 822 822 823 823 824 825 826 827 827 828 829 830 831 832 833 834 834 834 834 834 834 834 835 834 835 836 837 836 834 834 834 834 833 834 834 834
731 734 737 740 743 746 749 752 754 756 760 762 765 769 771 774 777 779 781 782 784 786 787 789 790 791 792 794 795 797 798 799 799 801 802 804 805 806 807 809 810 811 812 812 813 814 815 816 817 818 819 819 820 821 822 822 823 823 823 825 826 827 828 829 830 830 830 830 830 831 832 832 831 832 832 831 829 828 829 831 830 830 831 831 831
726 729 732 735 737 740 744 747 750 753 755 758 761 764 767 771 773 775 777 778 780 782 783 785 786 787 788 790 791 793 793 794 795 796 797 799 801 803 804 805 806 808 808 809 810 811 812 813 813 814 815 816 817 818 818 819 819 819 819 820 821 822 823 824 825 825 825 826 825 826 827 826 825 826 826 824 824 825 826 827 826 826 829 829 827
722 726 729 731 734 737 740 743 746 749 751 755 757 760 763 766 769 771 773 774 776 778 779 781 782 782 784 785 787 787 788 789 790 792 793 795 797 799 801 802 803 804 805 806 806 807 808 809 810 811 812 813 813 813 814 814 815 815 816 816 816 817 817 819 819 819 820 820 819 820 821 819 819 820 820 820 821 822 822 822 822 823 825 824 822
719 722 725 728 731 734 736 739 742 745 748 751 754 757 760 763 765 767 769 770 772 774 775 776 777 778 780 781 782 782 782 784 786 787 789 791 793 796 797 799 800 801 802 802 803 804 805 806 807 808 808 808 809 809 810 810 810 811 811 812 812 812 813 813 813 813 814 814 813 814 813 812 813 813 814 814 816 817 817 818 818 818 819 819 817
716 718 721 724 726 729 732 734 737 740 743 747 750 754 757 759 761 763 765 767 770 770 771 772 772 774 775 776 776 777 778 779 781 783 785 787 789 792 794 795 796 797 798 798 799 800 801 803 804 804 804 804 805 806 806 806 806 807 807 808 808 808 808 807 807 807 808 808 808 807 806 808 807 806 806 808 810 812 813 813 813 813 814 813 810
711 714 717 720 722 725 727 730 733 736 739 743 746 749 752 754 756 759 762 764 765 766 767 768 768 770 770 771 772 773 773 774 776 779 780 783 785 788 791 792 793 793 794 795 796 797 797 799 800 799 800 800 800 801 802 802 802 803 803 804 803 803 802 801 801 803 804 805 804 801 801 803 801 799 801 804 806 806 806 806 807 808 808 806 804
707 710 712 715 718 720 723 726 729 732 735 739 741 744 746 749 752 755 757 759 760 761 763 764 764 765 766 767 768 768 768 770 773 775 776 779 782 785 788 789 789 790 790 792 792 793 794 795 795 795 795 795 796 797 797 798 799 798 798 798 797 797 796 794 795 798 799 799 799 796 796 797 797 796 799 801 801 801 801 802 802 803 803 802 802
703 705 708 710 713 716 719 722 725 728 731 734 736 739 742 744 746 749 752 754 756 758 759 760 760 761 763 764 765 764 765 767 770 771 774 777 780 783 784 785 786 786 787 788 789 789 790 790 790 790 790 789 791 792 793 795 795 794 793 792 792 791 787 787 790 794 794 793 792 791 791 792 793 794 796 798 798 798 800 800 800 801 802 801 800
698 701 703 706 709 712 715 718 721 724 727 729 731 734 737 739 741 744 747 749 750 752 753 754 756 757 759 760 761 760 762 765 767 769 771 775 778 780 781 781 781 782 782 784 784 784 785 786 786 786 784 784 786 788 789 790 789 788 788 787 788 785 780 782 788 789 788 788 787 786 787 789 790 791 792 793 794 796 797 795 795 797 798 796 795
695 697 699 701 704 707 710 713 716 719 721 724 726 729 732 734 737 739 741 743 744 746 748 750 752 753 754 755 756 757 759 762 765 766 769 772 774 775 776 777 777 777 778 779 780 780 781 781 781 781 779 779 782 783 785 785 784 784 784 784 783 777 773 778 785 784 784 784 784 783 784 785 786 787 787 787 788 790 790 787 788 792 792 791 791
691 693 695 698 700 702 705 707 710 713 716 718 721 724 726 729 731 733 736 737 739 741 743 745 747 747 749 751 752 754 756 759 761 763 765 768 769 770 772 772 772 773 774 775 775 775 776 776 776 775 774 775 777 778 779 780 779 779 779 780 776 768 768 777 781 779 780 780 778 778 778 779 780 781 780 781 781 782 781 780 782 786 785 784 787
689 690 692 693 696 698 700 702 705 707 710 713 716 719 721 724 727 729 731 733 735 737 739 741 742 743 745 747 749 750 752 755 757 759 761 763 764 766 767 767 767 768 769 769 770 770 771 771 770 770 769 771 772 773 773 774 774 774 774 773 768 763 767 773 774 773 775 773 770 771 771 771 773 773 773 773 774 774 773 774 776 778 778 778 780
687 688 689 689 691 693 695 698 700 702 706 709 712 715 717 720 723 725 727 730 732 734 735 737 738 740 741 743 745 747 749 751 753 755 757 758 760 761 762 761 762 763 763 764 764 765 766 766 765 765 766 766 767 767 768 768 768 768 767 765 762 761 764 767 767 768 768 765 765 767 767 767 768 767 766 766 764 764 764 765 766 768 769 770 772
683 684 686 686 688 689 691 694 697 699 703 705 708 711 713 716 719 721 723 726 728 730 731 733 735 736 738 740 741 743 746 748 749 751 752 754 755 756 756 756 757 759 759 759 760 761 761 761 760 760 762 762 762 762 763 763 764 762 761 759 759 759 760 761 761 763 763 762 763 763 762 761 761 759 758 755 753 754 756 755 756 758 759 762 766
681 681 682 684 685 687 689 691 694 697 700 702 705 708 710 713 715 717 720 722 724 726 728 730 732 733 735 737 738 740 743 744 745 747 748 749 750 751 752 752 754 754 754 754 755 757 757 756 755 756 758 758 758 758 759 759 759 757 756 755 755 754 754 754 756 760 763 764 762 759 756 755 753 751 749 747 746 748 748 748 751 755 757 760 764
679 679 680 681 682 684 686 689 691 694 697 699 702 705 707 710 712 714 717 719 721 723 725 727 729 730 732 734 736 738 740 741 742 743 744 745 746 747 748 749 750 750 750 750 752 753 753 752 753 754 754 754 755 755 755 755 755 754 753 752 751 750 749 748 753 761 763 760 756 753 750 747 747 746 744 742 743 744 745 747 753 757 757 758 761
678 677 678 679 681 683 685 687 690 692 694 697 700 702 705 708 710 712 714 716 718 720 722 724 726 727 729 731 733 735 737 738 739 739 740 741 742 743 744 745 746 747 746 747 749 750 750 750 751 751 751 751 752 752 752 752 752 751 750 749 748 747 745 744 749 758 758 752 747 745 743 744 746 744 739 738 741 743 744 746 747 748 749 750 751
677 676 677 678 680 682 684 686 688 691 693 695 698 700 702 705 707 709 711 713 715 717 719 721 723 725 727 728 730 732 734 735 735 736 736 738 739 740 741 742 743 744 743 744 745 746 747 747 747 748 748 748 749 749 748 748 748 748 747 746 745 744 741 740 742 747 747 742 738 737 740 744 744 738 734 735 738 738 737 737 735 735 738 740 740
678 676 676 677 679 681 683 685 687 690 692 695 697 699 701 703 705 707 709 711 713 715 717 719 721 722 724 726 727 729 730 731 732 732 733 735 736 737 738 739 740 741 741 742 742 743 744 745 745 745 746 746 746 746 745 745 745 744 743 743 742 740 738 737 738 740 739 736 733 733 737 739 736 731 730 734 735 731 728 727 727 728 730 733 734
679 677 676 677 677 679 681 683 686 689 692 695 697 699 701 702 704 705 707 709 711 713 714 716 718 719 721 723 724 726 727 728 729 730 732 733 734 735 736 736 737 738 738 739 740 741 741 742 742 743 743 743 743 742 742 743 742 742 741 740 740 738 737 736 735 735 735 734 731 730 731 731 728 726 726 728 728 724 722 722 721 721 723 725 725
679 678 677 677 677 678 680 682 685 688 691 694 696 699 700 702 703 705 706 707 709 710 712 713 715 716 718 720 722 723 725 726 727 729 730 731 732 733 734 734 735 736 737 738 738 739 739 739 740 740 741 741 741 740 741 741 740 740 740 739 738 736 735 734 732 731 731 730 728 726 726 725 723 721 720 720 718 716 715 716 715 714 716 717 716
681 680 678 678 678 679 680 682 685 687 689 692 695 698 700 702 703 704 705 706 708 709 711 712 713 715 716 718 720 721 722 724 726 728 729 730 731 732 733 734 734 735 736 737 737 738 738 738 739 739 739 740 740 739 739 739 738 738 737 736 735 734 732 731 729 727 727 726 724 722 721 719 717 715 714 712 709 707 707 707 706 707 708 707 706
682 681 680 679 679 679 681 683 685 687 689 691 694 697 700 702 704 705 705 706 707 709 710 710 712 714 716 717 718 720 722 724 726 727 728 729 730 731 732 733 734 734 735 735 736 737 737 738 738 739 739 739 739 739 739 739 738 737 735 734 733 731 729 728 726 724 723 721 719 717 715 713 710 708 706 703 700 698 698 697 697 697 697 696 695
683 682 681 681 680 681 681 683 684 687 689 692 694 696 698 701 705 707 708 707 708 709 710 710 712 714 717 718 719 721 723 725 726 727 728 729 730 731 731 732 733 733 734 734 736 737 738 738 739 739 739 739 739 739 739 738 737 736 734 732 730 728 726 724 722 720 718 716 713 711 709 706 704 701 699 697 694 691 689 688 688 687 687 686 684
685 684 683 682 682 682 682 683 685 687 689 692 694 696 698 700 703 707 709 709 709 711 712 713 715 716 718 720 721 723 724 726 727 728 729 730 731 731 732 732 733 734 734 735 736 737 738 739 739 739 739 739 738 738 737 736 735 734 732 731 728 726 723 721 719 716 714 711 708 705 702 700 697 694 692 689 687 683 681 680 679 679 677 675 674
687 686 685 684 683 683 684 685 686 688 690 692 694 697 699 701 704 708 710 711 712 713 714 716 718 718 720 722 724 725 727 728 728 729 730 731 731 732 733 733 733 734 735 735 736 737 738 738 739 739 738 738 737 737 735 734 733 731 730 728 726 723 720 718 716 712 709 706 703 699 696 693 691 688 684 681 679 676 673 671 671 670 667 666 665
689 688 688 686 686 686 686 687 688 690 692 694 695 698 701 704 707 711 712 713 715 717 718 719 719 720 722 725 726 727 729 729 730 731 731 732 732 733 733 734 734 735 735 735 736 737 737 737 737 737 737 737 736 735 733 732 731 730 728 726 723 721 717 715 712 709 705 702 698 693 690 686 683 680 677 673 671 669 666 664 663 661 658 657 656
692 691 690 689 689 689 689 690 690 692 694 696 698 701 704 706 709 713 715 716 717 720 722 722 723 723 725 727 728 729 730 731 732 732 733 733 734 734 734 734 734 735 735 735 736 736 736 736 736 736 735 734 733 732 731 730 729 728 726 724 722 719 716 713 709 706 702 698 693 688 683 679 675 672 669 666 663 661 659 658 656 654 652 651 651
694 694 693 692 692 692 693 693 694 695 697 700 701 704 707 709 711 713 715 716 718 721 724 726 726 726 727 730 731 731 732 733 733 734 734 735 735 735 735 735 735 735 735 735 735 735 735 735 735 734 733 732 731 731 730 729 728 726 725 723 720 718 715 711 707 703 699 694 688 683 678 673 669 666 663 659 656 654 653 652 651 650 647 647 646
697 696 695 695 695 695 695 697 698 698 700 702 704 706 708 711 712 713 715 717 719 723 726 728 728 728 730 732 733 733 733 734 735 735 736 736 736 736 736 735 736 736 736 735 735 735 734 734 733 732 732 731 731 730 729 728 727 726 724 722 719 716 712 709 705 701 696 690 684 679 673 668 663 659 656 653 650 648 647 647 646 645 643 642 641
700 699 699 698 698 698 698 699 701 702 703 705 707 708 710 713 715 716 718 721 723 725 727 728 729 730 732 733 733 734 734 735 736 736 737 737 737 736 736 736 735 735 735 735 734 733 733 732 732 731 731 731 730 729 728 727 726 725 722 720 717 714 710 707 703 698 692 687 681 676 670 664 659 654 650 647 644 642 640 640 640 639 638 637 636
703 703 703 702 702 702 703 703 704 706 707 708 710 712 713 716 718 719 721 723 725 727 728 729 731 733 733 734 734 734 735 736 737 737 737 737 737 737 736 735 734 734 733 733 732 732 732 732 732 732 732 731 729 728 727 726 725 723 721 719 717 714 710 706 701 696 692 688 683 677 671 665 658 652 647 643 640 637 635 634 634 633 632 631 631
706 707 707 707 706 706 707 708 709 710 711 712 714 715 717 719 721 722 724 725 726 728 730 732 733 735 735 735 735 734 735 736 737 737 737 737 737 736 736 735 734 734 733 733 733 733 733 733 733 732 731 729 728 727 726 726 725 723 722 720 717 714 709 705 701 697 694 691 686 680 674 668 661 654 647 642 637 633 631 630 630 629 628 628 629
708 709 710 711 711 710 711 713 715 715 715 716 718 720 721 722 723 725 726 727 728 730 731 733 735 736 736 736 736 735 735 736 736 737 737 737 737 736 736 736 735 735 735 735 735 734 734 733 732 731 729 728 727 726 726 726 725 724 723 720 717 713 708 704 701 699 697 695 691 685 678 671 665 658 651 644 638 634 632 632 631 629 628 628 630
710 712 713 714 714 715 716 718 718 718 719 721 722 724 725 725 726 727 728 730 731 732 733 735 736 736 736 736 736 735 736 736 737 737 737 737 737 737 737 737 737 737 737 736 735 734 733 732 730 729 729 728 728 727 727 727 726 725 723 720 716 712 708 705 703 702 699 697 693 688 682 675 669 663 657 652 648 644 641 639 638 636 634 634 635
712 714 715 716 717 719 720 721 721 722 724 724 725 727 727 727 729 730 731 732 734 735 736 737 737 737 737 737 737 737 737 738 738 738 738 738 738 738 738 738 738 737 737 736 734 733 731 730 730 729 729 729 729 728 728 727 726 725 723 720 716 712 708 706 705 704 702 699 695 691 687 682 677 672 666 661 656 652 650 647 645 644 643 643 644
714 716 717 719 720 722 723 724 725 726 726 727 728 729 730 731 732 733 734 735 737 737 738 739 740 740 740 740 740 741 741 741 741 741 741 740 740 740 739 738 738 737 735 734 733 732 731 731 730 730 730 729 729 728 727 726 725 724 723 720 716 712 710 708 708 707 705 702 698 694 691 687 683 679 674 669 663 658 655 653 651 650 649 650 652
716 718 719 721 723 724 726 727 728 728 729 730 731 732 734 735 736 737 738 739 740 741 742 742 743 744 744 744 744 744 744 744 743 743 742 742 741 740 739 738 737 736 736 735 734 733 732 732 731 730 729 729 728 727 726 725 724 724 723 720 717 713 711 710 710 709 707 704 701 698 694 691 687 684 680 676 671 667 663 660 658 656 656 657 658
719 721 722 724 725 727 728 729 730 731 732 733 734 735 737 738 739 740 741 742 743 744 745 745 746 746 746 746 746 746 746 745 745 744 743 742 741 740 739 738 738 738 737 737 736 735 734 733 732 731 729 728 727 726 725 723 723 723 722 721 718 715 713 712 711 711 709 707 704 701 698 695 692 689 685 682 678 675 672 670 668 666 665 665 666
723 724 725 726 728 730 731 732 733 734 736 737 737 738 740 741 742 743 744 744 745 746 747 747 748 748 748 748 748 747 747 747 746 745 744 743 742 741 741 740 740 740 739 739 738 737 735 734 733 731 729 728 726 725 723 722 722 722 722 720 718 716 714 713 713 712 710 708 706 704 701 698 696 693 690 687 684 681 679 678 676 675 674 673 673
726 727 729 730 731 733 735 736 737 738 739 740 741 742 743 744 744 745 746 747 748 749 749 749 750 750 750 750 750 749 748 748 747 747 747 746 745 744 743 743 742 742 741 740 740 738 737 735 733 731 729 727 726 724 723 722 721 722 721 720 718 716 715 714 714 713 712 710 708 706 704 701 699 697 694 692 690 687 685 683 682 681 680 679 679
730 731 732 733 735 736 738 739 741 742 743 743 744 745 746 747 748 749 750 750 751 751 752 752 752 752 752 752 752 751 751 750 750 750 749 749 748 747 746 746 745 744 743 742 741 740 738 736 733 731 729 727 725 724 723 721 721 721 721 720 719 717 716 715 714 714 712 711 709 707 706 704 702 700 698 695 693 692 690 689 688 687 685 684 684
734 735 736 737 739 740 741 743 744 745 746 747 747 748 750 750 751 752 753 753 754 754 755 755 755 755 755 754 754 754 754 753 753 753 752 752 751 750 749 748 747 746 745 744 742 741 739 737 734 732 730 728 726 724 723 722 721 721 720 720 719 717 716 715 714 713 712 711 709 708 707 705 703 702 700 699 697 695 694 693 692 691 690 689 689